カタログに戻る

STARLINK-31048

運用中通信VLEO
NORAD 58544·PAYLOAD·🇺🇸 United States

打ち上げ Dec 8, 2023 から Vandenberg Space Force Base

Loading…

次のパス (今後24時間)

TLE

最新Source: CelesTrak SupGP

元期: Sep 14, 2026, 22:26 UTC

1 58544C 23192P   26257.93520833  .00045096  00000+0  13320-2 0  2579
2 58544  53.1562 261.5466 0001156  93.9446 124.8069 15.34376600    14

AllMySatでSTARLINK-31048をリアルタイム追跡

Download on the App Store